Location: Home
(42.5358°N, 72.7383°W)
Time: 16:47:45
(UTC-04:00)

Explorer 11/Cluster Stage 4 - Pass Details

Date: 05 August 2024
Orbit: 464 x 1208 km, 28.8° (Epoch: 19 September)

Event Time Altitude Azimuth Distance (km) Brightness Sun altitude
Rises 02:51:51 0° 240° (WSW) 3,912 - -25.0°
Reaches altitude 10° 02:54:58 10° 229° (SW) 3,034 - -24.7°
Maximum altitude 03:01:17 28° 174° (S) 2,069 - -24.1°
Exits shadow 03:02:11 28° 163° (SSE) 2,100 8.4 -24.0°
Drops below altitude 10° 03:07:47 10° 119° (ESE) 3,136 9.7 -23.5°
Sets 03:11:04 0° 109° (ESE) 4,065 10.4 -23.1°
